WP3OF Weather Reports


time (UTC)temp
C
wind
direction
speed
KPH
gust
KPH
rain 1hr
cm
rain 24hr
cm
rain mn
cm
humidity
%
barometer
mb
20260504215841 -17 252 9.7 11.3 0.00 0.00 0.00 1017.2
20260504215338 -17 84 4.8 4.8 0.00 0.00 0.00 1016.9
20260504214834 -17 335 4.8 6.4 0.00 0.00 0.00 1016.6
20260504214331 -17 0 1.6 6.4 0.00 0.00 0.00 1016.7
20260504213828 -17 63 3.2 6.4 0.00 0.00 0.00 1016.9
20260504213323 -17 34 3.2 6.4 0.00 0.00 0.00 1017.0
20260504212821 -17 19 6.4 9.7 0.00 0.00 0.00 1016.9
20260504212317 -17 329 3.2 4.8 0.00 0.00 0.00 1016.6
20260504211815 -17 49 8.0 9.7 0.00 0.00 0.00 1016.7
20260504211311 -17 40 9.7 11.3 0.00 0.00 0.00 1016.9
20260504210808 -17 68 6.4 6.4 0.00 0.00 0.00 1016.8
20260504210306 -17 40 6.4 6.4 0.00 0.00 0.00 1016.6
20260504205803 -17 41 11.3 12.9 0.00 0.00 0.00 1016.8
20260504205300 -17 69 3.2 9.7 0.00 0.00 0.00 1016.7
20260504204758 -17 61 1.6 9.7 0.00 0.00 0.00 1016.6
20260504204256 -17 138 3.2 9.7 0.00 0.00 0.00 1016.6
20260504203755 -17 209 3.2 4.8 0.00 0.00 0.00 1016.8
20260504203252 -17 76 11.3 14.5 0.00 0.00 0.00 1016.7
20260504202746 -17 85 4.8 9.7 0.00 0.00 0.00 1016.6
20260504202244 -17 28 4.8 11.3 0.00 0.00 0.00 1016.7
20260504201741 -17 60 8.0 16.1 0.00 0.00 0.00 1016.5
20260504201238 -17 81 14.5 14.5 0.00 0.00 0.00 1016.4
20260504200736 -17 60 6.4 12.9 0.00 0.00 0.00 1016.4
20260504200231 -17 39 6.4 9.7 0.00 0.00 0.00 1016.9
20260504195728 -17 125 6.4 12.9 0.00 0.00 0.00 1016.7
20260504195224 -17 159 6.4 16.1 0.00 0.00 0.00 1016.5
20260504194721 -17 70 20.9 25.7 0.00 0.00 0.00 1016.7
20260504194217 -17 87 11.3 16.1 0.00 0.00 0.00 1016.4
20260504193714 -17 73 16.1 17.7 0.00 0.00 0.00 1016.8
20260504193212 -17 55 4.8 12.9 0.00 0.00 0.00 1016.7
20260504192710 -17 58 8.0 9.7 0.00 0.00 0.00 1016.8
20260504192208 -17 183 3.2 6.4 0.00 0.00 0.00 1017.0
20260504191706 -17 328 6.4 11.3 0.00 0.00 0.00 1017.0
20260504191202 -17 78 4.8 4.8 0.00 0.00 0.00 1016.7
20260504190658 -17 33 19.3 24.1 0.00 0.00 0.00 1016.7
20260504190154 -17 48 14.5 22.5 0.00 0.00 0.00 1016.7
20260504185651 -17 45 12.9 17.7 0.00 0.00 0.00 1016.8
20260504185147 -17 26 14.5 14.5 0.00 0.00 0.00 1016.7
20260504184644 -17 40 11.3 20.9 0.00 0.00 0.00 1016.7
20260504184139 -17 44 17.7 20.9 0.00 0.00 0.00 1016.7
20260504183636 -17 43 16.1 24.1 0.00 0.00 0.00 1017.0
20260504183133 -17 31 19.3 25.7 0.00 0.00 0.00 1017.0
20260504182631 -17 37 16.1 20.9 0.00 0.00 0.00 1017.2
20260504182128 -17 47 16.1 17.7 0.00 0.00 0.00 1017.0
20260504181626 -17 53 16.1 20.9 0.00 0.00 0.00 1017.1
20260504181123 -17 36 14.5 22.5 0.00 0.00 0.00 1017.1
20260504180622 -17 21 11.3 20.9 0.00 0.00 0.00 1017.3
20260504180121 -17 62 22.5 25.7 0.00 0.00 0.00 1017.4
20260504175617 -17 50 17.7 30.6 0.00 0.00 0.00 1017.4
20260504175114 -17 31 27.4 29.0 0.00 0.00 0.00 1017.4
20260504174612 -17 36 17.7 24.1 0.00 0.00 0.00 1017.6
20260504174108 -17 26 12.9 20.9 0.00 0.00 0.00 1017.7
20260504173605 -17 27 19.3 25.7 0.00 0.00 0.00 1017.8
20260504173103 -17 357 17.7 20.9 0.00 0.00 0.00 1017.8
20260504172559 -17 26 20.9 24.1 0.00 0.00 0.00 1017.8
20260504172056 -17 42 17.7 20.9 0.00 0.00 0.00 1017.8
20260504171552 -17 17 9.7 12.9 0.00 0.00 0.00 1017.9
20260504171049 -17 22 6.4 20.9 0.00 0.00 0.00 1017.8
20260504170545 -17 59 16.1 20.9 0.00 0.00 0.00 1017.7
20260504150929 -17 31 22.5 25.7 0.00 0.00 0.00 1018.9
20260504150426 -17 36 17.7 22.5 0.00 0.00 0.00 1018.9
20260504140852 -17 101 17.7 22.5 0.00 0.00 0.00 1019.0
20260504140348 -17 90 14.5 20.9 0.00 0.00 0.00 1019.3
20260504130817 -17 70 11.3 24.1 0.00 0.00 0.00 1018.6
20260504130314 -17 107 16.1 22.5 0.00 0.00 0.00 1018.8
20260504120237 -17 88 9.7 11.3 0.00 0.00 0.00 1019.2
20260504110704 -17 134 6.4 9.7 0.00 0.00 0.00 1019.1
20260504110201 -17 111 3.2 6.4 0.00 0.00 0.00 1019.1
20260504100125 -17 150 8.0 9.7 0.00 0.00 0.00 1018.8
20260504081518 -17 141 8.0 11.3 0.00 0.00 0.00 1017.8
20260504081013 -17 134 9.7 12.9 0.00 0.00 0.00 1018.0
20260504080510 -17 139 9.7 12.9 0.00 0.00 0.00 1018.0
20260504050328 -17 118 11.3 12.9 0.00 0.00 0.00 1018.7
20260504045825 -17 133 11.3 12.9 0.00 0.00 0.00 1018.8
20260504045320 -17 113 8.0 12.9 0.00 0.00 0.00 1018.9
20260504044817 -17 131 9.7 12.9 0.00 0.00 0.00 1018.8
20260504044315 -17 135 11.3 12.9 0.00 0.00 0.00 1018.9
20260504043812 -17 128 11.3 12.9 0.00 0.00 0.00 1019.3
20260504043309 -17 116 8.0 9.7 0.00 0.00 0.00 1019.3
20260504042806 -17 115 4.8 9.7 0.00 0.00 0.00 1019.7
20260504042304 -17 120 4.8 6.4 0.00 0.00 0.00 1019.6
20260504041759 -17 110 3.2 6.4 0.00 0.00 0.00 1019.6
20260504041255 -17 120 8.0 11.3 0.00 0.00 0.00 1019.5
20260504040752 -17 124 8.0 9.7 0.00 0.00 0.00 1019.6
20260504040249 -17 138 6.4 6.4 0.00 0.00 0.00 1019.9
20260504035744 -17 136 6.4 9.7 0.00 0.00 0.00 1019.7
20260504035242 -17 157 4.8 9.7 0.00 0.00 0.00 1019.7
20260504034739 -17 144 4.8 9.7 0.00 0.00 0.00 1019.8
20260504034237 -17 145 6.4 9.7 0.00 0.00 0.00 1019.9
20260504033734 -17 136 6.4 9.7 0.00 0.00 0.00 1019.9
20260504033231 -17 148 4.8 6.4 0.00 0.00 0.00 1020.1
20260504032728 -17 147 6.4 9.7 0.00 0.00 0.00 1020.0
20260504032225 -17 162 4.8 6.4 0.00 0.00 0.00 1020.1
20260504031722 -17 162 1.6 3.2 0.00 0.00 0.00 1020.0
20260504031220 -17 186 1.6 3.2 0.00 0.00 0.00 1019.8
20260504030715 -17 174 1.6 1.6 0.00 0.00 0.00 1019.9
20260504030213 -17 162 1.6 3.2 0.00 0.00 0.00 1019.8
20260504025709 -17 183 3.2 3.2 0.00 0.00 0.00 1019.9
20260504025206 -17 198 3.2 3.2 0.00 0.00 0.00 1019.9
20260504024703 -17 196 3.2 3.2 0.00 0.00 0.00 1020.0
20260504024159 -17 185 3.2 3.2 0.00 0.00 0.00 1019.9
20260504023656 -17 156 0.0 3.2 0.00 0.00 0.00 1019.6
20260504023152 -17 179 1.6 1.6 0.00 0.00 0.00 1019.5
20260504022648 -17 152 3.2 4.8 0.00 0.00 0.00 1019.5
20260504022145 -17 138 3.2 4.8 0.00 0.00 0.00 1019.5
20260504021643 -17 123 3.2 4.8 0.00 0.00 0.00 1019.5
20260504021139 -17 133 6.4 6.4 0.00 0.00 0.00 1019.4
20260504020636 -17 123 4.8 6.4 0.00 0.00 0.00 1019.5
20260504020132 -17 137 4.8 6.4 0.00 0.00 0.00 1019.4
20260504015629 -17 150 4.8 6.4 0.00 0.00 0.00 1019.1
20260504015126 -17 157 4.8 9.7 0.00 0.00 0.00 1019.2
20260504014621 -17 147 3.2 4.8 0.00 0.00 0.00 1019.3
20260504014119 -17 170 3.2 3.2 0.00 0.00 0.00 1019.0
20260504013616 -17 179 3.2 4.8 0.00 0.00 0.00 1018.9
20260504013113 -17 179 3.2 3.2 0.00 0.00 0.00 1018.9
20260504012610 -17 163 4.8 6.4 0.00 0.00 0.00 1019.0
20260504012108 -17 164 4.8 4.8 0.00 0.00 0.00 1019.0
20260504011605 -17 171 4.8 6.4 0.00 0.00 0.00 1018.7
20260504011100 -17 170 4.8 9.7 0.00 0.00 0.00 1018.7
20260504010556 -17 163 3.2 6.4 0.00 0.00 0.00 1018.9
20260504010053 -17 164 4.8 6.4 0.00 0.00 0.00 1018.8
20260504005549 -17 175 6.4 11.3 0.00 0.00 0.00 1018.9
20260504005047 -17 179 6.4 9.7 0.00 0.00 0.00 1018.5
20260504004544 -17 180 8.0 9.7 0.00 0.00 0.00 1018.9
20260504004041 -17 208 8.0 9.7 0.00 0.00 0.00 1018.6
20260504003537 -17 201 8.0 9.7 0.00 0.00 0.00 1018.5
20260504003034 -17 199 4.8 6.4 0.00 0.00 0.00 1018.6
20260504002531 -17 184 4.8 6.4 0.00 0.00 0.00 1018.5
20260504002029 -17 186 4.8 6.4 0.00 0.00 0.00 1018.4
20260504001526 -17 217 1.6 3.2 0.00 0.00 0.00 1018.2
20260504001022 -17 205 1.6 3.2 0.00 0.00 0.00 1018.3
20260504000519 -17 224 3.2 3.2 0.00 0.00 0.00 1018.3
20260504000017 -17 231 1.6 1.6 0.00 0.00 0.00 1017.9
20260503235515 -17 217 0.0 1.6 0.00 0.00 0.00 1018.1
20260503235011 -17 194 1.6 3.2 0.00 0.00 0.00 1018.1
20260503234509 -17 178 1.6 1.6 0.00 0.00 0.00 1018.2
20260503234007 -17 105 3.2 3.2 0.00 0.00 0.00 1018.1
20260503233503 -17 190 0.0 1.6 0.00 0.00 0.00 1018.1
20260503232959 -17 122 1.6 1.6 0.00 0.00 0.00 1018.0
20260503232456 -17 158 3.2 4.8 0.00 0.00 0.00 1017.8
20260503231954 -17 117 1.6 4.8 0.00 0.00 0.00 1017.8
20260503231451 -17 86 0.0 3.2 0.00 0.00 0.00 1017.7
20260503230948 -17 116 1.6 4.8 0.00 0.00 0.00 1018.0
20260503230444 -17 87 9.7 12.9 0.00 0.00 0.00 1017.7
20260503225942 -17 96 4.8 11.3 0.00 0.00 0.00 1017.7
20260503225439 -17 97 8.0 12.9 0.00 0.00 0.00 1017.6
20260503224934 -17 111 4.8 11.3 0.00 0.00 0.00 1017.8
20260503224431 -17 94 4.8 11.3 0.00 0.00 0.00 1017.6
20260503223929 -17 79 6.4 9.7 0.00 0.00 0.00 1017.5
20260503223427 -17 79 9.7 14.5 0.00 0.00 0.00 1017.4
20260503222922 -17 95 4.8 11.3 0.00 0.00 0.00 1017.5
20260503222421 -17 151 6.4 9.7 0.00 0.00 0.00 1017.5
20260503221919 -17 133 6.4 6.4 0.00 0.00 0.00 1017.4
20260503221417 -17 77 12.9 12.9 0.00 0.00 0.00 1017.4
20260503220913 -17 79 11.3 14.5 0.00 0.00 0.00 1017.6
20260503220410 -17 119 6.4 12.9 0.00 0.00 0.00 1017.2